| time (UTC) | temp F | wind direction | speed MPH | gust MPH | rain 1hr in | rain 24hr in | rain mn in | humidity % | barometer mb |
| 20260510214529 | 66 | 246 | 7.0 | 11.0 | 0.00 | 0.00 | 0.00 | 34 | 1017.8 |
| 20260510214026 | 66 | 289 | 6.0 | 15.0 | 0.00 | 0.00 | 0.00 | 31 | 1017.7 |
| 20260510213531 | 67 | 329 | 8.0 | 15.0 | 0.00 | 0.00 | 0.00 | 28 | 1017.7 |
| 20260510213025 | 67 | 288 | 6.0 | 12.0 | 0.00 | 0.00 | 0.00 | 33 | 1017.6 |
| 20260510212525 | 66 | 327 | 6.0 | 13.0 | 0.00 | 0.00 | 0.00 | 32 | 1017.6 |
| 20260510212025 | 66 | 305 | 6.0 | 14.0 | 0.00 | 0.00 | 0.00 | 27 | 1017.5 |
| 20260510211525 | 67 | 317 | 9.0 | 14.0 | 0.00 | 0.00 | 0.00 | 29 | 1017.4 |
| 20260510211025 | 66 | 301 | 4.0 | 11.0 | 0.00 | 0.00 | 0.00 | 29 | 1017.5 |
| 20260510210524 | 67 | 338 | 7.0 | 14.0 | 0.00 | 0.00 | 0.00 | 32 | 1017.5 |
| 20260510210024 | 67 | 346 | 9.0 | 15.0 | 0.00 | 0.00 | 0.00 | 31 | 1017.6 |
| 20260510205526 | 67 | 288 | 8.0 | 17.0 | 0.00 | 0.00 | 0.00 | 32 | 1017.4 |
| 20260510205024 | 67 | 309 | 9.0 | 17.0 | 0.00 | 0.00 | 0.00 | 33 | 1017.4 |
| 20260510204524 | 67 | 338 | 10.0 | 17.0 | 0.00 | 0.00 | 0.00 | 33 | 1017.3 |
| 20260510204022 | 67 | 340 | 8.0 | 18.0 | 0.00 | 0.00 | 0.00 | 33 | 1017.2 |
| 20260510203522 | 67 | 320 | 10.0 | 18.0 | 0.00 | 0.00 | 0.00 | 32 | 1017.2 |
| 20260510203022 | 66 | 279 | 5.0 | 17.0 | 0.00 | 0.00 | 0.00 | 39 | 1017.1 |
| 20260510202522 | 66 | 328 | 11.0 | 17.0 | 0.00 | 0.00 | 0.00 | 33 | 1017.3 |
| 20260510202024 | 66 | 307 | 6.0 | 18.0 | 0.00 | 0.00 | 0.00 | 33 | 1017.4 |
| 20260510201521 | 66 | 276 | 11.0 | 18.0 | 0.00 | 0.00 | 0.00 | 32 | 1017.5 |
| 20260510201021 | 67 | 310 | 10.0 | 18.0 | 0.00 | 0.00 | 0.00 | 35 | 1017.5 |
| 20260510200520 | 66 | 271 | 8.0 | 14.0 | 0.00 | 0.00 | 0.00 | 34 | 1017.5 |
| 20260510200027 | 66 | 301 | 7.0 | 14.0 | 0.00 | 0.00 | 0.00 | 37 | 1017.8 |
| 20260510195520 | 65 | 303 | 5.0 | 10.0 | 0.00 | 0.00 | 0.00 | 31 | 1017.8 |
| 20260510195024 | 66 | 274 | 4.0 | 17.0 | 0.00 | 0.00 | 0.00 | 34 | 1017.9 |
| 20260510194529 | 65 | 244 | 8.0 | 17.0 | 0.00 | 0.00 | 0.00 | 36 | 1017.6 |
| 20260510194019 | 66 | 305 | 10.0 | 16.0 | 0.00 | 0.00 | 0.00 | 35 | 1017.7 |
| 20260510193519 | 66 | 322 | 11.0 | 16.0 | 0.00 | 0.00 | 0.00 | 36 | 1017.5 |
| 20260510193018 | 66 | 288 | 6.0 | 11.0 | 0.00 | 0.00 | 0.00 | 37 | 1017.5 |
| 20260510192518 | 66 | 321 | 7.0 | 19.0 | 0.00 | 0.00 | 0.00 | 37 | 1017.6 |
| 20260510192018 | 66 | 317 | 5.0 | 19.0 | 0.00 | 0.00 | 0.00 | 34 | 1017.6 |
| 20260510191521 | 66 | 320 | 7.0 | 18.0 | 0.00 | 0.00 | 0.00 | 35 | 1017.8 |
| 20260510191016 | 66 | 328 | 12.0 | 18.0 | 0.00 | 0.00 | 0.00 | 36 | 1017.8 |
| 20260510190516 | 66 | 331 | 10.0 | 18.0 | 0.00 | 0.00 | 0.00 | 35 | 1017.8 |
| 20260510190018 | 66 | 290 | 8.0 | 14.0 | 0.00 | 0.00 | 0.00 | 37 | 1017.7 |
| 20260510185516 | 65 | 355 | 5.0 | 12.0 | 0.00 | 0.00 | 0.00 | 33 | 1017.9 |
| 20260510185018 | 65 | 285 | 5.0 | 15.0 | 0.00 | 0.00 | 0.00 | 33 | 1017.8 |
| 20260510184516 | 65 | 317 | 8.0 | 17.0 | 0.00 | 0.00 | 0.00 | 37 | 1017.7 |
| 20260510184015 | 65 | 309 | 10.0 | 17.0 | 0.00 | 0.00 | 0.00 | 35 | 1017.7 |
| 20260510183515 | 65 | 323 | 5.0 | 14.0 | 0.00 | 0.00 | 0.00 | 39 | 1017.7 |
| 20260510183015 | 64 | 5 | 3.0 | 10.0 | 0.00 | 0.00 | 0.00 | 36 | 1017.6 |
| 20260510182514 | 64 | 327 | 6.0 | 14.0 | 0.00 | 0.00 | 0.00 | 37 | 1017.7 |
| 20260510182014 | 64 | 264 | 6.0 | 14.0 | 0.00 | 0.00 | 0.00 | 36 | 1017.7 |
| 20260510181514 | 64 | 295 | 8.0 | 14.0 | 0.00 | 0.00 | 0.00 | 35 | 1017.8 |
| 20260510181015 | 65 | 323 | 7.0 | 14.0 | 0.00 | 0.00 | 0.00 | 41 | 1017.8 |
| 20260510180515 | 65 | 14 | 3.0 | 13.0 | 0.00 | 0.00 | 0.00 | 41 | 1017.8 |
| 20260510180014 | 65 | 53 | 5.0 | 15.0 | 0.00 | 0.00 | 0.00 | 38 | 1017.9 |
| 20260510175514 | 65 | 355 | 9.0 | 15.0 | 0.00 | 0.00 | 0.00 | 39 | 1017.8 |
| 20260510175017 | 65 | 331 | 7.0 | 14.0 | 0.00 | 0.00 | 0.00 | 37 | 1017.8 |
| 20260510174513 | 65 | 296 | 5.0 | 26.0 | 0.00 | 0.00 | 0.00 | 36 | 1017.9 |
| 20260510174014 | 65 | 309 | 6.0 | 26.0 | 0.00 | 0.00 | 0.00 | 38 | 1017.9 |
| 20260510173511 | 64 | 334 | 6.0 | 12.0 | 0.00 | 0.00 | 0.00 | 40 | 1018.0 |
| 20260510173014 | 64 | 355 | 4.0 | 15.0 | 0.00 | 0.00 | 0.00 | 33 | 1018.0 |
| 20260510172512 | 63 | 284 | 7.0 | 15.0 | 0.00 | 0.00 | 0.00 | 35 | 1018.1 |
| 20260510172011 | 64 | 256 | 7.0 | 13.0 | 0.00 | 0.00 | 0.00 | 36 | 1018.0 |
| 20260510171511 | 63 | 271 | 2.0 | 11.0 | 0.00 | 0.00 | 0.00 | 35 | 1018.1 |
| 20260510171010 | 64 | 251 | 6.0 | 13.0 | 0.00 | 0.00 | 0.00 | 35 | 1018.2 |
| 20260510170510 | 64 | 360 | 9.0 | 13.0 | 0.00 | 0.00 | 0.00 | 33 | 1018.2 |
| 20260510170009 | 64 | 315 | 2.0 | 11.0 | 0.00 | 0.00 | 0.00 | 32 | 1018.2 |
| 20260510165508 | 63 | 311 | 5.0 | 11.0 | 0.00 | 0.00 | 0.00 | 35 | 1018.3 |
| 20260510165008 | 63 | 315 | 6.0 | 12.0 | 0.00 | 0.00 | 0.00 | 36 | 1018.3 |
| 20260510164511 | 63 | 257 | 5.0 | 13.0 | 0.00 | 0.00 | 0.00 | 37 | 1018.4 |
| 20260510164006 | 63 | 302 | 8.0 | 13.0 | 0.00 | 0.00 | 0.00 | 38 | 1018.4 |
| 20260510163508 | 63 | 295 | 6.0 | 12.0 | 0.00 | 0.00 | 0.00 | 37 | 1018.3 |
| 20260510163005 | 63 | 254 | 2.0 | 8.0 | 0.00 | 0.00 | 0.00 | 38 | 1018.1 |
| 20260510162506 | 63 | 60 | 2.0 | 8.0 | 0.00 | 0.00 | 0.00 | 42 | 1018.1 |
| 20260510162003 | 62 | 303 | 1.0 | 10.0 | 0.00 | 0.00 | 0.00 | 35 | 1017.9 |
| 20260510161502 | 62 | 333 | 4.0 | 12.0 | 0.00 | 0.00 | 0.00 | 33 | 1017.8 |
| 20260510161002 | 62 | 13 | 6.0 | 12.0 | 0.00 | 0.00 | 0.00 | 36 | 1017.7 |
| 20260510160501 | 63 | 10 | 5.0 | 12.0 | 0.00 | 0.00 | 0.00 | 37 | 1017.6 |
| 20260510160118 | 63 | 69 | 7.0 | 12.0 | 0.00 | 0.00 | 0.00 | 38 | 1017.5 |
| 20260510155600 | 62 | 292 | 6.0 | 11.0 | 0.00 | 0.00 | 0.00 | 38 | 1017.5 |
| 20260510155100 | 63 | 33 | 6.0 | 10.0 | 0.00 | 0.00 | 0.00 | 37 | 1017.4 |
| 20260510154600 | 63 | 24 | 5.0 | 12.0 | 0.00 | 0.00 | 0.00 | 40 | 1017.3 |
| 20260510154059 | 62 | 16 | 6.0 | 12.0 | 0.00 | 0.00 | 0.00 | 36 | 1017.4 |
| 20260510153601 | 62 | 5 | 7.0 | 10.0 | 0.00 | 0.00 | 0.00 | 38 | 1017.3 |
| 20260510153101 | 62 | 309 | 3.0 | 9.0 | 0.00 | 0.00 | 0.00 | 38 | 1017.2 |
| 20260510152557 | 62 | 349 | 3.0 | 8.0 | 0.00 | 0.00 | 0.00 | 41 | 1017.3 |
| 20260510152057 | 61 | 244 | 2.0 | 6.0 | 0.00 | 0.00 | 0.00 | 41 | 1017.3 |
| 20260510151556 | 61 | 246 | 2.0 | 6.0 | 0.00 | 0.00 | 0.00 | 37 | 1017.3 |
| 20260510151056 | 61 | 276 | 3.0 | 6.0 | 0.00 | 0.00 | 0.00 | 39 | 1017.4 |
| 20260510150555 | 61 | 10 | 1.0 | 4.0 | 0.00 | 0.00 | 0.00 | 44 | 1017.4 |
| 20260510150103 | 60 | 187 | 1.0 | 5.0 | 0.00 | 0.00 | 0.00 | 41 | 1017.5 |
| 20260510145554 | 61 | 274 | 2.0 | 6.0 | 0.00 | 0.00 | 0.00 | 35 | 1017.5 |
| 20260510145053 | 61 | 292 | 2.0 | 6.0 | 0.00 | 0.00 | 0.00 | 38 | 1017.5 |
| 20260510144552 | 60 | 36 | 3.0 | 7.0 | 0.00 | 0.00 | 0.00 | 42 | 1017.5 |
| 20260510144056 | 60 | 31 | 3.0 | 7.0 | 0.00 | 0.00 | 0.00 | 45 | 1017.6 |
| 20260510143549 | 60 | 43 | 3.0 | 6.0 | 0.00 | 0.00 | 0.00 | 41 | 1017.6 |
| 20260510143058 | 59 | 26 | 2.0 | 8.0 | 0.00 | 0.00 | 0.00 | 39 | 1017.5 |
| 20260510142549 | 59 | 46 | 4.0 | 8.0 | 0.00 | 0.00 | 0.00 | 46 | 1017.5 |
| 20260510142049 | 59 | 61 | 3.0 | 8.0 | 0.00 | 0.00 | 0.00 | 44 | 1017.5 |
| 20260510141547 | 59 | 9 | 4.0 | 8.0 | 0.00 | 0.00 | 0.00 | 45 | 1017.3 |
| 20260510141048 | 59 | 54 | 4.0 | 7.0 | 0.00 | 0.00 | 0.00 | 49 | 1017.4 |
| 20260510140545 | 58 | 26 | 4.0 | 7.0 | 0.00 | 0.00 | 0.00 | 46 | 1017.4 |
| 20260510140044 | 58 | 31 | 4.0 | 9.0 | 0.00 | 0.00 | 0.00 | 46 | 1017.4 |
| 20260510135546 | 57 | 34 | 4.0 | 10.0 | 0.00 | 0.00 | 0.00 | 48 | 1017.2 |
| 20260510135042 | 57 | 44 | 5.0 | 10.0 | 0.00 | 0.00 | 0.00 | 47 | 1017.2 |
| 20260510134547 | 57 | 71 | 4.0 | 9.0 | 0.00 | 0.00 | 0.00 | 51 | 1017.2 |
| 20260510134042 | 56 | 46 | 5.0 | 10.0 | 0.00 | 0.00 | 0.00 | 50 | 1017.0 |
| 20260510133543 | 56 | 17 | 5.0 | 10.0 | 0.00 | 0.00 | 0.00 | 46 | 1017.1 |
| 20260510133039 | 56 | 100 | 6.0 | 10.0 | 0.00 | 0.00 | 0.00 | 48 | 1017.0 |
| 20260510132537 | 56 | 59 | 4.0 | 10.0 | 0.00 | 0.00 | 0.00 | 52 | 1016.9 |
| 20260510132037 | 56 | 88 | 5.0 | 9.0 | 0.00 | 0.00 | 0.00 | 49 | 1016.8 |
| 20260510131536 | 55 | 11 | 4.0 | 8.0 | 0.00 | 0.00 | 0.00 | 54 | 1016.8 |
| 20260510131034 | 55 | 71 | 4.0 | 9.0 | 0.00 | 0.00 | 0.00 | 56 | 1016.9 |
| 20260510130534 | 54 | 51 | 5.0 | 9.0 | 0.00 | 0.00 | 0.00 | 56 | 1016.8 |
| 20260510130032 | 54 | 46 | 5.0 | 9.0 | 0.00 | 0.00 | 0.00 | 59 | 1016.7 |
| 20260510125532 | 53 | 41 | 4.0 | 9.0 | 0.00 | 0.00 | 0.00 | 62 | 1016.7 |
| 20260510125029 | 53 | 53 | 6.0 | 9.0 | 0.00 | 0.00 | 0.00 | 60 | 1016.7 |
| 20260510124528 | 52 | 53 | 5.0 | 9.0 | 0.00 | 0.00 | 0.00 | 61 | 1016.6 |
| 20260510124029 | 52 | 24 | 4.0 | 9.0 | 0.00 | 0.00 | 0.00 | 60 | 1016.6 |
| 20260510123526 | 52 | 68 | 4.0 | 7.0 | 0.00 | 0.00 | 0.00 | 63 | 1016.6 |
| 20260510123028 | 51 | 34 | 4.0 | 7.0 | 0.00 | 0.00 | 0.00 | 63 | 1016.6 |
| 20260510122523 | 51 | 31 | 3.0 | 7.0 | 0.00 | 0.00 | 0.00 | 64 | 1016.6 |
| 20260510122022 | 50 | 58 | 3.0 | 7.0 | 0.00 | 0.00 | 0.00 | 65 | 1016.4 |
| 20260510121522 | 50 | 36 | 4.0 | 7.0 | 0.00 | 0.00 | 0.00 | 65 | 1016.4 |
| 20260510121022 | 49 | 44 | 3.0 | 8.0 | 0.00 | 0.00 | 0.00 | 66 | 1016.3 |
| 20260510120521 | 49 | 22 | 5.0 | 8.0 | 0.00 | 0.00 | 0.00 | 65 | 1016.0 |
| 20260510120018 | 49 | 40 | 2.0 | 6.0 | 0.00 | 0.00 | 0.00 | 68 | 1016.0 |
| 20260510115523 | 48 | 35 | 3.0 | 7.0 | 0.00 | 0.00 | 0.00 | 67 | 1015.8 |
| 20260510115022 | 48 | 47 | 4.0 | 8.0 | 0.00 | 0.00 | 0.00 | 67 | 1015.8 |
| 20260510114516 | 48 | 53 | 3.0 | 8.0 | 0.00 | 0.00 | 0.00 | 68 | 1015.7 |
| 20260510114016 | 47 | 34 | 4.0 | 7.0 | 0.00 | 0.00 | 0.00 | 68 | 1015.6 |
| 20260510113514 | 47 | 52 | 3.0 | 5.0 | 0.00 | 0.00 | 0.00 | 69 | 1015.5 |
| 20260510113014 | 46 | 33 | 3.0 | 6.0 | 0.00 | 0.00 | 0.00 | 70 | 1015.4 |
| 20260510112514 | 46 | 50 | 3.0 | 6.0 | 0.00 | 0.00 | 0.00 | 70 | 1015.2 |
| 20260510112014 | 45 | 26 | 2.0 | 4.0 | 0.00 | 0.00 | 0.00 | 72 | 1015.2 |
| 20260510111514 | 44 | 17 | 2.0 | 4.0 | 0.00 | 0.00 | 0.00 | 73 | 1015.3 |
| 20260510111012 | 44 | 19 | 2.0 | 4.0 | 0.00 | 0.00 | 0.00 | 74 | 1015.3 |
| 20260510110512 | 43 | 21 | 2.0 | 4.0 | 0.00 | 0.00 | 0.00 | 74 | 1015.1 |
| 20260510110014 | 43 | 26 | 2.0 | 4.0 | 0.00 | 0.00 | 0.00 | 75 | 1014.8 |
| 20260510105510 | 43 | 25 | 2.0 | 4.0 | 0.00 | 0.00 | 0.00 | 75 | 1014.8 |
| 20260510105010 | 43 | 16 | 2.0 | 5.0 | 0.00 | 0.00 | 0.00 | 75 | 1014.7 |
| 20260510104509 | 43 | 16 | 2.0 | 5.0 | 0.00 | 0.00 | 0.00 | 74 | 1014.6 |
| 20260510104007 | 43 | 19 | 2.0 | 5.0 | 0.00 | 0.00 | 0.00 | 74 | 1014.5 |
| 20260510103506 | 44 | 11 | 2.0 | 5.0 | 0.00 | 0.00 | 0.00 | 73 | 1014.4 |
| 20260510103006 | 44 | 17 | 3.0 | 5.0 | 0.00 | 0.00 | 0.00 | 72 | 1014.4 |
| 20260510102505 | 44 | 11 | 3.0 | 5.0 | 0.00 | 0.00 | 0.00 | 72 | 1014.3 |
| 20260510102006 | 44 | 11 | 3.0 | 5.0 | 0.00 | 0.00 | 0.00 | 71 | 1014.3 |
| 20260510101504 | 45 | 16 | 3.0 | 6.0 | 0.00 | 0.00 | 0.00 | 71 | 1014.3 |
| 20260510101003 | 45 | 26 | 4.0 | 6.0 | 0.00 | 0.00 | 0.00 | 70 | 1014.2 |
| 20260510100502 | 46 | 29 | 4.0 | 8.0 | 0.00 | 0.00 | 0.00 | 69 | 1014.2 |
| 20260510100003 | 46 | 10 | 4.0 | 9.0 | 0.00 | 0.00 | 0.00 | 68 | 1014.1 |
| 20260510095501 | 46 | 360 | 5.0 | 10.0 | 0.00 | 0.00 | 0.00 | 68 | 1014.0 |
| 20260510095100 | 46 | 11 | 6.0 | 10.0 | 0.00 | 0.00 | 0.00 | 68 | 1013.9 |
| 20260510094600 | 46 | 5 | 6.0 | 10.0 | 0.00 | 0.00 | 0.00 | 68 | 1013.9 |
| 20260510094059 | 46 | 24 | 6.0 | 10.0 | 0.00 | 0.00 | 0.00 | 69 | 1013.7 |
| 20260510093558 | 46 | 38 | 7.0 | 9.0 | 0.00 | 0.00 | 0.00 | 69 | 1013.5 |
| 20260510093108 | 46 | 19 | 5.0 | 9.0 | 0.00 | 0.00 | 0.00 | 70 | 1013.6 |
| 20260510092558 | 46 | 19 | 5.0 | 9.0 | 0.00 | 0.00 | 0.00 | 70 | 1013.6 |
| 20260510092058 | 46 | 32 | 5.0 | 9.0 | 0.00 | 0.00 | 0.00 | 71 | 1013.5 |
| 20260510091559 | 46 | 23 | 5.0 | 10.0 | 0.00 | 0.00 | 0.00 | 72 | 1013.5 |
| 20260510091056 | 46 | 24 | 5.0 | 10.0 | 0.00 | 0.00 | 0.00 | 72 | 1013.5 |
| 20260510090556 | 46 | 25 | 5.0 | 9.0 | 0.00 | 0.00 | 0.00 | 74 | 1013.4 |
| 20260510090056 | 46 | 26 | 5.0 | 10.0 | 0.00 | 0.00 | 0.00 | 73 | 1013.5 |
| 20260510085557 | 46 | 10 | 7.0 | 10.0 | 0.00 | 0.00 | 0.00 | 75 | 1013.4 |
| 20260510085054 | 46 | 5 | 7.0 | 10.0 | 0.00 | 0.00 | 0.00 | 79 | 1013.2 |
| 20260510084559 | 45 | 350 | 6.0 | 10.0 | 0.00 | 0.00 | 0.00 | 81 | 1013.2 |
| 20260510084052 | 44 | 360 | 5.0 | 8.0 | 0.00 | 0.00 | 0.00 | 84 | 1013.1 |
| 20260510083550 | 44 | 355 | 1.0 | 3.0 | 0.00 | 0.00 | 0.00 | 83 | 1012.9 |
| 20260510083052 | 44 | 355 | 1.0 | 3.0 | 0.00 | 0.00 | 0.00 | 83 | 1012.8 |
| 20260510082549 | 44 | 343 | 1.0 | 3.0 | 0.00 | 0.00 | 0.00 | 83 | 1012.8 |
| 20260510082051 | 44 | 343 | 0.0 | 3.0 | 0.00 | 0.00 | 0.00 | 84 | 1012.8 |
| 20260510081616 | 44 | 343 | 1.0 | 3.0 | 0.00 | 0.00 | 0.00 | 84 | 1012.8 |
| 20260510081048 | 45 | 343 | 1.0 | 3.0 | 0.00 | 0.00 | 0.00 | 83 | 1012.7 |
| 20260510080546 | 45 | 355 | 1.0 | 3.0 | 0.00 | 0.00 | 0.00 | 83 | 1012.6 |
| 20260510080045 | 46 | 45 | 2.0 | 3.0 | 0.00 | 0.00 | 0.00 | 82 | 1012.5 |
| 20260510075543 | 46 | 45 | 2.0 | 3.0 | 0.00 | 0.00 | 0.00 | 82 | 1012.4 |
| 20260510075042 | 47 | 45 | 2.0 | 3.0 | 0.00 | 0.00 | 0.00 | 82 | 1012.4 |
| 20260510074541 | 47 | 45 | 1.0 | 2.0 | 0.00 | 0.00 | 0.00 | 81 | 1012.3 |
| 20260510074041 | 48 | 45 | 1.0 | 3.0 | 0.00 | 0.00 | 0.00 | 81 | 1012.2 |
| 20260510073539 | 48 | 45 | 1.0 | 3.0 | 0.00 | 0.00 | 0.00 | 78 | 1012.3 |
| 20260510073052 | 48 | 45 | 1.0 | 3.0 | 0.00 | 0.00 | 0.00 | 77 | 1012.1 |
| 20260510072545 | 47 | 45 | 1.0 | 3.0 | 0.00 | 0.00 | 0.00 | 78 | 1012.0 |
| 20260510072040 | 47 | 45 | 1.0 | 3.0 | 0.00 | 0.00 | 0.00 | 81 | 1012.0 |
| 20260510071538 | 47 | 45 | 0.0 | 0.0 | 0.00 | 0.00 | 0.00 | 83 | 1012.0 |
| 20260510071037 | 47 | 45 | 0.0 | 0.0 | 0.00 | 0.00 | 0.00 | 84 | 1011.9 |
| 20260510070536 | 47 | 45 | 0.0 | 2.0 | 0.00 | 0.00 | 0.00 | 83 | 1011.9 |
| 20260510070038 | 48 | 45 | 0.0 | 2.0 | 0.00 | 0.00 | 0.00 | 82 | 1011.8 |
| 20260510065535 | 48 | 45 | 0.0 | 1.0 | 0.00 | 0.00 | 0.00 | 80 | 1011.7 |
| 20260510065035 | 47 | 45 | 0.0 | 3.0 | 0.00 | 0.00 | 0.00 | 77 | 1011.6 |
| 20260510064546 | 47 | 45 | 1.0 | 3.0 | 0.00 | 0.00 | 0.00 | 78 | 1011.6 |
| 20260510064032 | 47 | 45 | 2.0 | 3.0 | 0.00 | 0.00 | 0.00 | 79 | 1011.5 |
| 20260510063531 | 47 | 45 | 1.0 | 3.0 | 0.00 | 0.00 | 0.00 | 79 | 1011.4 |
| 20260510063040 | 47 | 45 | 1.0 | 2.0 | 0.00 | 0.00 | 0.00 | 79 | 1011.3 |
| 20260510062530 | 47 | 45 | 0.0 | 2.0 | 0.00 | 0.00 | 0.00 | 80 | 1011.4 |
| 20260510062029 | 47 | 45 | 1.0 | 3.0 | 0.00 | 0.00 | 0.00 | 80 | 1011.2 |
| 20260510061533 | 47 | 45 | 2.0 | 3.0 | 0.00 | 0.00 | 0.00 | 78 | 1011.2 |
| 20260510061027 | 48 | 45 | 1.0 | 3.0 | 0.00 | 0.00 | 0.00 | 76 | 1011.2 |
| 20260510060527 | 48 | 45 | 0.0 | 2.0 | 0.00 | 0.00 | 0.00 | 75 | 1011.3 |
| 20260510060040 | 48 | 45 | 0.0 | 2.0 | 0.00 | 0.00 | 0.00 | 75 | 1011.3 |
| 20260510055525 | 49 | 45 | 0.0 | 1.0 | 0.00 | 0.00 | 0.00 | 72 | 1011.3 |
| 20260510055124 | 48 | 45 | 0.0 | 2.0 | 0.00 | 0.00 | 0.00 | 72 | 1011.2 |
| 20260510054526 | 48 | 45 | 1.0 | 2.0 | 0.00 | 0.00 | 0.00 | 73 | 1011.1 |
| 20260510054024 | 48 | 45 | 1.0 | 2.0 | 0.00 | 0.00 | 0.00 | 73 | 1010.9 |
| 20260510053522 | 49 | 45 | 1.0 | 2.0 | 0.00 | 0.00 | 0.00 | 72 | 1011.0 |
| 20260510053035 | 50 | 45 | 1.0 | 2.0 | 0.00 | 0.00 | 0.00 | 73 | 1010.9 |
| 20260510052518 | 50 | 45 | 1.0 | 2.0 | 0.00 | 0.00 | 0.00 | 68 | 1010.8 |
| 20260510052020 | 50 | 45 | 1.0 | 2.0 | 0.00 | 0.00 | 0.00 | 67 | 1010.7 |
| 20260510051523 | 50 | 45 | 0.0 | 2.0 | 0.00 | 0.00 | 0.00 | 66 | 1010.8 |
| 20260510051019 | 50 | 45 | 0.0 | 0.0 | 0.00 | 0.00 | 0.00 | 67 | 1010.7 |
| 20260510050517 | 51 | 45 | 0.0 | 0.0 | 0.00 | 0.00 | 0.00 | 69 | 1010.6 |
| 20260510050015 | 51 | 45 | 0.0 | 0.0 | 0.00 | 0.00 | 0.00 | 68 | 1010.6 |
| 20260510045515 | 52 | 45 | 0.0 | 0.0 | 0.00 | 0.00 | 0.00 | 69 | 1010.5 |
| 20260510045013 | 52 | 45 | 0.0 | 0.0 | 0.00 | 0.00 | 0.00 | 65 | 1010.4 |
| 20260510044532 | 52 | 45 | 0.0 | 0.0 | 0.00 | 0.00 | 0.00 | 62 | 1010.4 |
| 20260510044012 | 52 | 45 | 0.0 | 0.0 | 0.00 | 0.00 | 0.00 | 62 | 1010.3 |
| 20260510043511 | 52 | 45 | 0.0 | 1.0 | 0.00 | 0.00 | 0.00 | 63 | 1010.2 |
| 20260510043011 | 52 | 45 | 0.0 | 1.0 | 0.00 | 0.00 | 0.00 | 65 | 1010.2 |
| 20260510042510 | 53 | 45 | 0.0 | 3.0 | 0.00 | 0.00 | 0.00 | 63 | 1010.0 |
| 20260510042009 | 53 | 45 | 1.0 | 3.0 | 0.00 | 0.00 | 0.00 | 63 | 1009.9 |
| 20260510041508 | 53 | 45 | 1.0 | 4.0 | 0.00 | 0.00 | 0.00 | 64 | 1009.7 |
| 20260510041007 | 53 | 45 | 2.0 | 4.0 | 0.00 | 0.00 | 0.00 | 63 | 1009.6 |
| 20260510040510 | 54 | 46 | 2.0 | 4.0 | 0.00 | 0.00 | 0.00 | 61 | 1009.6 |
| 20260510040007 | 54 | 51 | 2.0 | 6.0 | 0.00 | 0.00 | 0.00 | 60 | 1009.5 |
| 20260510035506 | 54 | 55 | 3.0 | 6.0 | 0.00 | 0.00 | 0.00 | 60 | 1009.4 |
| 20260510035007 | 55 | 38 | 3.0 | 6.0 | 0.00 | 0.00 | 0.00 | 60 | 1009.3 |
| 20260510034506 | 55 | 50 | 2.0 | 6.0 | 0.00 | 0.00 | 0.00 | 59 | 1009.4 |
| 20260510034006 | 55 | 65 | 3.0 | 6.0 | 0.00 | 0.00 | 0.00 | 59 | 1009.3 |
| 20260510033505 | 56 | 52 | 3.0 | 6.0 | 0.00 | 0.00 | 0.00 | 58 | 1009.2 |
| 20260510033004 | 56 | 52 | 3.0 | 7.0 | 0.00 | 0.00 | 0.00 | 58 | 1009.1 |
| 20260510032503 | 56 | 54 | 2.0 | 8.0 | 0.00 | 0.00 | 0.00 | 57 | 1008.9 |
| 20260510032002 | 57 | 62 | 4.0 | 9.0 | 0.00 | 0.00 | 0.00 | 55 | 1008.8 |
| 20260510031504 | 57 | 49 | 6.0 | 10.0 | 0.00 | 0.00 | 0.00 | 54 | 1008.7 |
| 20260510031001 | 58 | 50 | 7.0 | 10.0 | 0.00 | 0.00 | 0.00 | 53 | 1008.7 |
| 20260510030501 | 58 | 50 | 7.0 | 11.0 | 0.00 | 0.00 | 0.00 | 52 | 1008.7 |
| 20260510030113 | 59 | 48 | 6.0 | 15.0 | 0.00 | 0.00 | 0.00 | 52 | 1008.7 |
| 20260510025559 | 60 | 53 | 8.0 | 15.0 | 0.00 | 0.00 | 0.00 | 51 | 1008.6 |
| 20260510025059 | 61 | 35 | 9.0 | 14.0 | 0.00 | 0.00 | 0.00 | 57 | 1008.3 |
| 20260510024557 | 61 | 27 | 6.0 | 10.0 | 0.00 | 0.00 | 0.00 | 59 | 1008.1 |
| 20260510024056 | 62 | 336 | 6.0 | 10.0 | 0.00 | 0.00 | 0.00 | 58 | 1007.8 |
| 20260510023556 | 62 | 317 | 5.0 | 11.0 | 0.00 | 0.00 | 0.00 | 58 | 1007.8 |
| 20260510023056 | 63 | 313 | 6.0 | 11.0 | 0.00 | 0.00 | 0.00 | 56 | 1007.6 |
| 20260510022554 | 63 | 300 | 6.0 | 11.0 | 0.00 | 0.00 | 0.00 | 56 | 1007.5 |
| 20260510022054 | 63 | 294 | 6.0 | 11.0 | 0.00 | 0.00 | 0.00 | 56 | 1007.3 |
| 20260510021553 | 63 | 315 | 7.0 | 12.0 | 0.00 | 0.00 | 0.00 | 56 | 1007.2 |
| 20260510021052 | 64 | 304 | 8.0 | 12.0 | 0.00 | 0.00 | 0.00 | 55 | 1007.1 |
| 20260510020551 | 63 | 317 | 7.0 | 11.0 | 0.00 | 0.00 | 0.00 | 56 | 1007.0 |
| 20260510020051 | 64 | 306 | 6.0 | 11.0 | 0.00 | 0.00 | 0.00 | 56 | 1006.9 |
| 20260510015555 | 64 | 283 | 7.0 | 11.0 | 0.00 | 0.00 | 0.00 | 54 | 1006.9 |
| 20260510015049 | 64 | 294 | 7.0 | 12.0 | 0.00 | 0.00 | 0.00 | 54 | 1006.8 |
| 20260510014553 | 65 | 303 | 6.0 | 12.0 | 0.00 | 0.00 | 0.00 | 53 | 1006.7 |
| 20260510014051 | 65 | 280 | 8.0 | 12.0 | 0.00 | 0.00 | 0.00 | 52 | 1006.6 |
| 20260510013549 | 66 | 291 | 5.0 | 9.0 | 0.00 | 0.00 | 0.00 | 52 | 1006.5 |
| 20260510013048 | 66 | 291 | 5.0 | 11.0 | 0.00 | 0.00 | 0.00 | 48 | 1006.6 |
| 20260510012551 | 67 | 267 | 5.0 | 11.0 | 0.00 | 0.00 | 0.00 | 48 | 1006.6 |
| 20260510012048 | 67 | 277 | 6.0 | 11.0 | 0.00 | 0.00 | 0.00 | 48 | 1006.4 |
| 20260510011546 | 67 | 289 | 5.0 | 11.0 | 0.00 | 0.00 | 0.00 | 48 | 1006.3 |
| 20260510011045 | 67 | 259 | 5.0 | 14.0 | 0.00 | 0.00 | 0.00 | 46 | 1006.2 |
| 20260510010544 | 67 | 269 | 7.0 | 14.0 | 0.00 | 0.00 | 0.00 | 46 | 1006.1 |
| 20260510010044 | 67 | 297 | 6.0 | 11.0 | 0.00 | 0.00 | 0.00 | 46 | 1006.0 |
| 20260510005543 | 68 | 282 | 5.0 | 11.0 | 0.00 | 0.00 | 0.00 | 46 | 1006.0 |
| 20260510005041 | 68 | 302 | 6.0 | 13.0 | 0.00 | 0.00 | 0.00 | 46 | 1005.8 |
| 20260510004542 | 68 | 290 | 5.0 | 13.0 | 0.00 | 0.00 | 0.00 | 46 | 1005.7 |
| 20260510004040 | 68 | 277 | 6.0 | 12.0 | 0.00 | 0.00 | 0.00 | 45 | 1005.6 |
| 20260510003539 | 68 | 297 | 6.0 | 16.0 | 0.00 | 0.00 | 0.00 | 44 | 1005.5 |
| 20260510003046 | 68 | 291 | 7.0 | 16.0 | 0.00 | 0.00 | 0.00 | 44 | 1005.5 |
| 20260510002538 | 69 | 293 | 8.0 | 15.0 | 0.00 | 0.00 | 0.00 | 43 | 1005.3 |
| 20260510002038 | 69 | 263 | 8.0 | 19.0 | 0.00 | 0.00 | 0.00 | 43 | 1005.3 |
| 20260510001537 | 69 | 276 | 11.0 | 19.0 | 0.00 | 0.00 | 0.00 | 43 | 1005.2 |
| 20260510001037 | 69 | 261 | 7.0 | 16.0 | 0.00 | 0.00 | 0.00 | 44 | 1005.2 |
| 20260510000537 | 69 | 268 | 8.0 | 13.0 | 0.00 | 0.00 | 0.00 | 44 | 1005.2 |
| 20260510000042 | 69 | 268 | 6.0 | 12.0 | 0.00 | 0.00 | 0.00 | 44 | 1005.1 |
| 20260509235536 | 69 | 284 | 7.0 | 14.0 | 0.00 | 0.00 | 0.00 | 44 | 1005.0 |
| 20260509235039 | 69 | 301 | 9.0 | 15.0 | 0.00 | 0.00 | 0.00 | 43 | 1005.2 |
| 20260509234551 | 69 | 316 | 9.0 | 18.0 | 0.00 | 0.00 | 0.00 | 44 | 1005.2 |
| 20260509234039 | 69 | 284 | 10.0 | 18.0 | 0.00 | 0.00 | 0.00 | 42 | 1005.1 |
| 20260509233539 | 69 | 268 | 6.0 | 13.0 | 0.00 | 0.00 | 0.00 | 43 | 1005.1 |
| 20260509233038 | 69 | 239 | 7.0 | 18.0 | 0.00 | 0.00 | 0.00 | 42 | 1005.1 |
| 20260509232536 | 70 | 275 | 9.0 | 21.0 | 0.00 | 0.00 | 0.00 | 42 | 1005.1 |
| 20260509232036 | 70 | 254 | 12.0 | 21.0 | 0.00 | 0.00 | 0.00 | 41 | 1005.1 |
| 20260509231536 | 69 | 257 | 8.0 | 15.0 | 0.00 | 0.00 | 0.00 | 41 | 1005.0 |
| 20260509231037 | 70 | 272 | 8.0 | 18.0 | 0.00 | 0.00 | 0.00 | 42 | 1005.0 |
| 20260509230536 | 70 | 263 | 8.0 | 18.0 | 0.00 | 0.00 | 0.00 | 42 | 1005.1 |
| 20260509230039 | 70 | 305 | 7.0 | 12.0 | 0.00 | 0.00 | 0.00 | 42 | 1005.0 |
| 20260509225535 | 70 | 239 | 6.0 | 13.0 | 0.00 | 0.00 | 0.00 | 42 | 1004.8 |
| 20260509225035 | 70 | 303 | 9.0 | 13.0 | 0.00 | 0.00 | 0.00 | 40 | 1004.8 |
| 20260509224533 | 70 | 273 | 7.0 | 16.0 | 0.00 | 0.00 | 0.00 | 39 | 1004.8 |
| 20260509224032 | 71 | 311 | 7.0 | 17.0 | 0.00 | 0.00 | 0.00 | 38 | 1004.7 |
| 20260509223532 | 71 | 280 | 9.0 | 17.0 | 0.00 | 0.00 | 0.00 | 39 | 1004.6 |
| 20260509223033 | 71 | 283 | 9.0 | 18.0 | 0.00 | 0.00 | 0.00 | 36 | 1004.5 |
| 20260509222536 | 71 | 263 | 8.0 | 18.0 | 0.00 | 0.00 | 0.00 | 36 | 1004.5 |
| 20260509222035 | 71 | 247 | 11.0 | 18.0 | 0.00 | 0.00 | 0.00 | 34 | 1004.4 |
| 20260509221535 | 71 | 240 | 12.0 | 20.0 | 0.00 | 0.00 | 0.00 | 35 | 1004.4 |
| 20260509221030 | 71 | 223 | 11.0 | 20.0 | 0.00 | 0.00 | 0.00 | 36 | 1004.4 |
| 20260509220530 | 72 | 261 | 9.0 | 15.0 | 0.00 | 0.00 | 0.00 | 36 | 1004.4 |
| 20260509220030 | 72 | 279 | 10.0 | 20.0 | 0.00 | 0.00 | 0.00 | 34 | 1004.4 |
| 20260509215530 | 72 | 286 | 12.0 | 20.0 | 0.00 | 0.00 | 0.00 | 35 | 1004.4 |
| 20260509215029 | 72 | 283 | 10.0 | 19.0 | 0.00 | 0.00 | 0.00 | 33 | 1004.3 |